This is the latest recevied weather packets stored in our database for station/object KC5CAM-13. If no packets are shown the sender has not sent any weather packets the latest 1 day(s).
| Time | Temp. | Humidity | Pressure | Rain* | Wind** | Luminosity | Snow |
|---|---|---|---|---|---|---|---|
| 1778010099 | 30.56° C | 62% | 1005.3 hPa | 0 mm | 0.89 m/s, 216° | 690 W/m² | - |
| 1778009796 | 30° C | 62% | 1005.3 hPa | 0 mm | 1.34 m/s, 184° | 536 W/m² | - |
| 1778009493 | 30° C | 64% | 1005.5 hPa | 0 mm | 0.45 m/s, 251° | 548 W/m² | - |
| 1778009192 | 30° C | 63% | 1005.4 hPa | 0 mm | 1.34 m/s, 157° | 436 W/m² | - |
| 1778008889 | 30.56° C | 65% | 1005.2 hPa | 0 mm | 0.45 m/s, 316° | 590 W/m² | - |
| 1778008587 | 30.56° C | 62% | 1005.3 hPa | 0 mm | 0.89 m/s, 311° | 620 W/m² | - |
| 1778008285 | 30.56° C | 65% | 1005.1 hPa | 0 mm | 1.79 m/s, 155° | 769 W/m² | - |
| 1778007980 | 30° C | 64% | 1005.3 hPa | 0 mm | 1.34 m/s, 157° | 828 W/m² | - |
| 1778007675 | 29.44° C | 65% | 1005.1 hPa | 0 mm | 2.24 m/s, 35° | 675 W/m² | - |
| 1778007373 | 28.89° C | 66% | 1005 hPa | 0 mm | 1.79 m/s, 115° | 463 W/m² | - |
| 1778007069 | 28.89° C | 66% | 1005.2 hPa | 0 mm | 2.24 m/s, 138° | 570 W/m² | - |
| 1778006765 | 28.89° C | 65% | 1005.1 hPa | 0 mm | 2.24 m/s, 180° | 505 W/m² | - |
| 1778006462 | 28.89° C | 66% | 1005.1 hPa | 0 mm | 3.13 m/s, 184° | 326 W/m² | - |
| 1778006159 | 28.89° C | 66% | 1005.3 hPa | 0 mm | 3.58 m/s, 166° | 417 W/m² | - |
| 1778005857 | 29.44° C | 64% | 1005.5 hPa | 0 mm | 1.34 m/s, 212° | 412 W/m² | - |
| 1778005553 | 29.44° C | 66% | 1005.4 hPa | 0 mm | 0.89 m/s, 194° | 400 W/m² | - |
| 1778005250 | 29.44° C | 66% | 1005.3 hPa | 0 mm | 1.34 m/s, 188° | 466 W/m² | - |
| 1778004946 | 28.89° C | 65% | 1005.2 hPa | 0 mm | 2.24 m/s, 76° | 653 W/m² | - |
| 1778004644 | 28.89° C | 66% | 1005.4 hPa | 0 mm | 1.79 m/s, 298° | 485 W/m² | - |
| 1778004339 | 28.33° C | 67% | 1005.4 hPa | 0 mm | 0.89 m/s, 194° | 435 W/m² | - |
| 1778004038 | 28.33° C | 66% | 1005.6 hPa | 0 mm | 1.79 m/s, 157° | 373 W/m² | - |
| 1778003737 | 28.89° C | 66% | 1005.3 hPa | 0 mm | 4.02 m/s, 167° | 356 W/m² | - |
| 1778003435 | 28.89° C | 66% | 1005.4 hPa | 0 mm | 2.24 m/s, 197° | 797 W/m² | - |
| 1778003131 | 28.33° C | 70% | 1005.4 hPa | 0 mm | 0.89 m/s, 141° | 455 W/m² | - |
| 1778002827 | 28.33° C | 70% | 1005.4 hPa | 0 mm | 2.24 m/s, 257° | 511 W/m² | - |
* Rain latest hour (hover to see other rain measurements)
** Current wind speed in m/s (hover to see current wind gust speed)